Location: Breitenfeld
(46.8500°N, 15.6333°E)
Time: 03:50:26
(UTC+00:00)

Cosmos 2360 - Pass Details

Date: 09 April 2020
Orbit: 847 x 855 km, 70.8° (Epoch: 04 June)

Event Time Altitude Azimuth Distance (km) Brightness Sun altitude
Rises 20:20:39 0° 335° (NNW) 3,421 8.5 -24.9°
Reaches altitude 10° 20:23:10 10° 339° (NNW) 2,483 7.5 -25.2°
Maximum altitude 20:28:46 56° 58° (ENE) 1,003 4.4 -25.8°
Enters shadow 20:29:09 55° 75° (ENE) 1,014 4.4 -25.9°
